Malmstrom AFB, MT

12:16 AM MST on December 18, 2017 (GMT -0700)
Malmstrom AFB

Weather History for KGFA - March, 2013

Change the Weather History Date:

Tuesday, March 5, 2013

  Actual Average (KGTF) Record (KGTF)
Temperature  
Mean Temperature 14 °F -  
Max Temperature 26 °F 42 °F 74 °F (1987)
Min Temperature 3 °F 19 °F -22 °F (1947)
Degree Days  
Heating Degree Days 50    
Moisture  
Dew Point 10 °F    
Average Humidity 74    
Maximum Humidity 87    
Minimum Humidity 65    
Precipitation  
Precipitation 0.00 in - - ()
Sea Level Pressure  
Sea Level Pressure 30.37 in    
Wind  
Wind Speed 4 mph (NNE)    
Max Wind Speed 9 mph    
Max Gust Speed -    
Visibility 10 miles    
Events      
Averages and records for this station are not official NWS values.
T = Trace of Precipitation, MM = Missing Value Source: NWS Daily Summary

Daily Weather History Graph

Daily Weather History Graph

Search for Another Location

Airport or City:

Trip Planner

Search our weather history database for the weather conditions in past years. The results will help you decide how hot, cold, wet, or windy it might be!

Date:

Astronomy

Mar. 05, 2013 Rise Set
Actual Time 6:56 AM MST 6:16 PM MST
Civil Twilight 6:26 AM MST 6:46 PM MST
Nautical Twilight 5:50 AM MST 7:22 PM MST
Astronomical Twilight 5:14 AM MST 7:58 PM MST
Moon 2:31 AM MST (3/5) 11:40 AM MST (3/5)
Length of Visible Light 12h 20m
Length of Day
11h 19m
Last Quarter, 40% of the Moon is Illuminated
Mar 5
Last Quarter
Mar 11
New
Mar 19
First Quarter
Mar 27
Full
Apr 2
Last Quarter

Hourly Weather History & Observations

Time (MST) Temp. Windchill Dew Point Humidity Pressure Visibility Wind Dir Wind Speed Gust Speed Precip Events Conditions
12:56 AM 5.0 °F -5.6 °F -0.9 °F 76% 30.48 in 10.0 mi SSE 5.8 mph - N/A   Clear
1:56 AM 7.0 °F - -0.9 °F 70% 30.46 in 10.0 mi Calm Calm - N/A   Clear
2:56 AM 9.0 °F 2.4 °F 1.9 °F 73% 30.45 in 10.0 mi ESE 3.5 mph - N/A   Clear
3:56 AM 5.0 °F -2.1 °F -0.9 °F 76% 30.45 in 10.0 mi East 3.5 mph - N/A   Clear
4:56 AM 6.1 °F -2.8 °F -0.0 °F 76% 30.45 in 10.0 mi SSE 4.6 mph - N/A   Clear
5:56 AM 3.9 °F - -0.9 °F 80% 30.45 in 10.0 mi Calm Calm - N/A   Clear
6:56 AM 5.0 °F - 1.9 °F 87% 30.47 in 10.0 mi Calm Calm - N/A   Clear
7:56 AM 6.1 °F - 1.0 °F 80% 30.45 in 10.0 mi Calm Calm - N/A   Clear
8:56 AM 10.0 °F 1.8 °F 3.9 °F 76% 30.46 in 10.0 mi North 4.6 mph - N/A   Clear
9:56 AM 15.1 °F 7.7 °F 7.0 °F 70% 30.43 in 10.0 mi NNE 4.6 mph - N/A   Clear
10:56 AM 18.0 °F 9.8 °F 10.9 °F 74% 30.41 in 10.0 mi NNE 5.8 mph - N/A   Clear
11:56 AM 21.0 °F 13.4 °F 12.9 °F 71% 30.40 in 10.0 mi NNE 5.8 mph - N/A   Clear
12:56 PM 24.1 °F 17.0 °F 14.0 °F 65% 30.36 in 10.0 mi NNE 5.8 mph - N/A   Clear
1:56 PM 26.1 °F 16.8 °F 16.0 °F 66% 30.33 in 10.0 mi North 9.2 mph - N/A   Clear
2:56 PM 25.0 °F 15.5 °F 16.0 °F 69% 30.32 in 10.0 mi NNE 9.2 mph - N/A   Clear
3:56 PM 25.0 °F 16.3 °F 15.1 °F 66% 30.32 in 10.0 mi NNE 8.1 mph - N/A   Clear
4:56 PM 25.0 °F 15.5 °F 17.1 °F 72% 30.30 in 10.0 mi NNE 9.2 mph - N/A   Clear
5:56 PM 25.0 °F 17.1 °F 17.1 °F 72% 30.30 in 10.0 mi North 6.9 mph - N/A   Overcast
6:56 PM 25.0 °F 16.3 °F 18.0 °F 75% 30.30 in 10.0 mi North 8.1 mph - N/A   Overcast
7:56 PM 24.1 °F 16.0 °F 17.1 °F 75% 30.30 in 10.0 mi North 6.9 mph - N/A   Overcast
8:56 PM 23.0 °F 13.9 °F 17.1 °F 78% 30.28 in 10.0 mi North 8.1 mph - N/A   Overcast
9:56 PM 23.0 °F 15.8 °F 17.1 °F 78% 30.25 in 10.0 mi NNW 5.8 mph - N/A   Overcast
10:56 PM 23.0 °F - 17.1 °F 78% 30.23 in 10.0 mi Calm Calm - N/A   Overcast
11:56 PM 21.9 °F - 17.1 °F 82% 30.20 in 10.0 mi Calm Calm - N/A   Clear